Content
SEND FEEDBACK

Mexico Flag

MORELIA, MICHOACAN


Home > North America > Mexico > Michoacan
Elevation: 6275 feet     Latitude: 19 42N     Longitude: 101 11W

WEATHER
 
SELECT A DAY
Number of Records: 166,806;   Date Range: 1/1/95 - 2/12/16
 
SHARE

PRINT THIS DATA

[ ← Previous Day ]
WEATHER ALMANAC - JANUARY 23, 2013
[ Next Day → ]
[ °C ]   °F
Weather ElementAverageHighLow
Temperature56.7 °F71.6 °F (3:41 pm)44.6 °F (7:45 am)
Dewpoint45.2 °F50 °F (8:50 am)41 °F (4:42 pm)
Humidity66.7 %95 % (5:55 am)33 % (5:55 pm)
Barometer30.21 in30.43 in (9:46 am)29.96 in (2:47 am)
Wind Speed2.6 mph11.2 mph (5:55 pm)
Weather ElementAverage
Visibility6.2 mi
Wind DirectionE (90 °)

Weather ElementTotal
Precipitation---
Heating Degree Days6.9 (Base 65)
Growing Degree Days8.1 (Base 50)
Averaged from 33 records on January 23, 2013
WEATHER CONDITIONS BREAKOUT
WIND DIRECTION BREAKOUT
WEATHER BY HOUR - JANUARY 23, 2013
[ °C ]   °F
Local TimeTemperatureDewpointHumidityBarometerVisibilityWind DirectionWind SpeedGust SpeedPrecipitationEventsConditions
1:45 AM50.0 °F46.4 °F87 %30.31 in7.0 miCalmMostly Cloudy
2:47 AM50.0 °F46.4 °F87 %29.96 in6.0 miCalmMostly Cloudy
2:55 AM50.0 °F47.0 °F85 %30.04 in5.0 miSSE (160°)2.2 mph
3:42 AM48.2 °F46.4 °F93 %30.31 in6.0 miCalmMostly Cloudy
4:53 AM48.2 °F44.6 °F87 %30.32 in6.0 miCalmMostly Cloudy
5:50 AM48.2 °F46.4 °F93 %30.03 in6.0 miCalmMostly Cloudy
5:55 AM48.0 °F47.0 °F95 %30.13 in5.0 miSSE (160°)2.2 mphPartly Cloudy
6:46 AM46.4 °F42.8 °F87 %30.36 in6.0 miCalmMostly Cloudy
7:45 AM44.6 °F42.8 °F93 %30.38 in5.0 miCalmScattered Clouds
8:30 AM48.2 °F46.4 °F93 %30.40 in5.0 miCalmScattered Clouds
8:45 AM50.0 °F46.4 °F87 %30.14 in5.0 miCalmScattered Clouds
8:50 AM52.0 °F50.0 °F89 %30.23 in6.0 miNNE (30°)4.5 mphPartly Cloudy
9:24 AM53.6 °F46.4 °F77 %30.42 in5.0 miCalmClear
9:46 AM57.2 °F46.4 °F67 %30.43 in5.0 miNNW (330°)4.6 mphPartly Cloudy
10:44 AM60.8 °F48.2 °F63 %30.43 in5.0 miCalmScattered Clouds
11:47 AM64.4 °F48.2 °F56 %30.11 in6.0 miNE (40°)4.6 mphScattered Clouds
11:50 AM65.0 °F48.0 °F44 %30.21 in6.0 miENE (60°)4.5 mphPartly Cloudy
12:42 PM68.0 °F48.2 °F49 %30.38 in6.0 miNorth (360°)4.6 mphScattered Clouds
1:44 PM68.0 °F48.2 °F49 %30.38 in7.0 miNorth (360°)10.4 mphMostly Cloudy
2:43 PM69.8 °F42.8 °F38 %29.99 in7.0 miCalmMostly Cloudy
2:55 PM68.0 °F47.0 °F36 %30.05 in7.0 miWNW (300°)8.9 mphPartly Cloudy
3:41 PM71.6 °F44.6 °F38 %30.29 in7.0 miNorth (360°)6.9 mphMostly Cloudy
4:42 PM68.0 °F41.0 °F37 %30.29 in7.0 miNW (320°)5.8 mphMostly Cloudy
5:46 PM68.0 °F42.8 °F40 %29.98 in7.0 miNorth (10°)5.8 mphMostly Cloudy
5:55 PM67.0 °F45.0 °F33 %29.98 in7.0 miWNW (300°)11.2 mphPartly Cloudy
6:46 PM60.8 °F42.8 °F52 %30.31 in7.0 miCalmMostly Cloudy
7:41 PM59.0 °F42.8 °F55 %30.33 in7.0 miCalmMostly Cloudy
8:42 PM55.4 °F41.0 °F58 %29.96 in7.0 miCalmScattered Clouds
8:50 PM58.0 °F45.0 °F53 %29.99 in6.0 miNorth4.5 mphPartly Cloudy
9:40 PM50.0 °F41.0 °F71 %30.36 in7.0 miCalmPartly Cloudy
10:42 PM50.0 °F41.0 °F71 %30.38 in7.0 miCalmPartly Cloudy
11:45 PM48.2 °F41.0 °F76 %30.08 in7.0 miCalmClear
11:50 PM55.0 °F46.0 °F62 %30.05 in5.0 miSouth (180°)4.5 mphPartly Cloudy
Hourly data recorded from MMMM, located miles away from Morelia, Michoacan




STORIES FROM OUR PARTNERS